Prague, Czech Republic

11:37 AM CET on January 16, 2018 (GMT +0100)
Ruzyne

Weather History for LKPR - February, 2012

Change the Weather History Date:

Friday, February 10, 2012

  Actual Average Record
Temperature  
Mean Temperature 8 °F -  
Max Temperature 16 °F 40 °F 53 °F (1998)
Min Temperature 0 °F 26 °F 0 °F (2012)
Degree Days  
Heating Degree Days 57    
Moisture  
Dew Point 3 °F    
Average Humidity 80    
Maximum Humidity 92    
Minimum Humidity 58    
Precipitation  
Precipitation 0.00 in 0.03 in - ()
Sea Level Pressure  
Sea Level Pressure 30.55 in    
Wind  
Wind Speed 7 mph ()    
Max Wind Speed 11 mph    
Max Gust Speed -    
Visibility 3.7 miles    
Events Snow    
Averages and records for this station are not official NWS values.
T = Trace of Precipitation, MM = Missing Value Source: Averaged Metar Reports

Daily Weather History Graph

Daily Weather History Graph

Search for Another Location

Airport or City:

Trip Planner

Search our weather history database for the weather conditions in past years. The results will help you decide how hot, cold, wet, or windy it might be!

Date:

Astronomy

Feb. 10, 2012 Rise Set
Actual Time 7:23 AM CET 5:11 PM CET
Civil Twilight 6:49 AM CET 5:45 PM CET
Nautical Twilight 6:11 AM CET 6:23 PM CET
Astronomical Twilight 5:33 AM CET 7:01 PM CET
Moon 8:56 PM CET (2/10) 7:59 AM CET (2/10)
Length of Visible Light 10h 55m
Length of Day
9h 47m
Waning Gibbous, 92% of the Moon is Illuminated
Feb 10
Waning Gibbous
Feb 14
Last Quarter
Feb 21
New
Mar 1
First Quarter
Mar 8
Full

Hourly Weather History & Observations

Time (CET) Temp. Windchill Dew Point Humidity Pressure Visibility Wind Dir Wind Speed Gust Speed Precip Events Conditions
12:00 AM 14.0 °F 2.9 °F 8.6 °F 79% 30.48 in 4.3 mi North 8.1 mph - N/A Snow Light Snow
12:30 AM 12.2 °F -0.2 °F 8.6 °F 85% 30.48 in 2.5 mi North 9.2 mph - N/A Snow Light Snow
1:00 AM 12 °F - 8 °F 78% 30.63 in 2 mi North 11.2 mph - - Snow Light Snow
1:00 AM 12.2 °F -0.2 °F 8.6 °F 85% 30.48 in - North 9.2 mph - N/A Snow Light Snow
1:30 AM 12.2 °F -0.2 °F 8.6 °F 85% 30.48 in 2.8 mi North 9.2 mph - N/A Snow Light Snow
2:00 AM 10.4 °F -2.4 °F 6.8 °F 85% 30.51 in 3.1 mi North 9.2 mph - N/A Snow Light Snow
2:30 AM 10.4 °F -2.4 °F 6.8 °F 85% 30.51 in 3.1 mi North 9.2 mph - N/A   Overcast
3:00 AM 10.4 °F -1.5 °F 6.8 °F 85% 30.51 in 3.1 mi North 8.1 mph - N/A Snow Light Snow
3:30 AM 8.6 °F -3.7 °F 5.0 °F 85% 30.51 in 3.1 mi North 8.1 mph - N/A Snow Light Snow
4:00 AM 5.0 °F -9.1 °F 1.4 °F 85% 30.51 in 3.1 mi North 9.2 mph - N/A   Scattered Clouds
4:30 AM 3.2 °F -11.3 °F 1.4 °F 92% 30.51 in 3.1 mi North 9.2 mph - N/A   Partly Cloudy
5:00 AM 3.2 °F -7.8 °F -0.4 °F 85% 30.51 in 3.1 mi North 5.8 mph - N/A   Partly Cloudy
5:30 AM 3.2 °F -7.8 °F -0.4 °F 85% 30.54 in 3.1 mi NNW 5.8 mph - N/A   Mist
6:00 AM -0.4 °F -14.7 °F -2.2 °F 92% 30.54 in 3.1 mi NNW 8.1 mph - N/A   Mist
6:30 AM 1.4 °F -9.9 °F -2.2 °F 85% 30.54 in 3.1 mi NW 5.8 mph - N/A   Mist
7:00 AM 3 °F - -1 °F 77% 30.72 in 3 mi NW 4.5 mph - -   Mist
7:00 AM 3.2 °F -7.8 °F -0.4 °F 85% 30.54 in 3.1 mi NW 5.8 mph - N/A   Partly Cloudy
7:30 AM 3.2 °F -7.8 °F -0.4 °F 85% 30.54 in 2.8 mi NNW 5.8 mph - N/A   Scattered Clouds
8:00 AM 3.2 °F -6.2 °F -0.4 °F 85% 30.57 in 2.5 mi NW 4.6 mph - N/A   Partly Cloudy
8:30 AM 3.2 °F -7.8 °F -0.4 °F 85% 30.57 in 2.8 mi NW 5.8 mph - N/A   Mist
9:00 AM 5.0 °F -5.6 °F 1.4 °F 85% 30.57 in 2.8 mi NW 5.8 mph - N/A   Mist
9:30 AM 6.8 °F -2.0 °F 3.2 °F 85% 30.57 in 2.5 mi NNW 4.6 mph - N/A   Mist
10:00 AM 6.8 °F -3.5 °F 3.2 °F 85% 30.57 in 3.1 mi NNW 5.8 mph - N/A   Mist
10:30 AM 8.6 °F -2.6 °F 5.0 °F 85% 30.57 in 3.1 mi North 6.9 mph - N/A   Mist
11:00 AM 10.4 °F -0.4 °F 5.0 °F 79% 30.60 in 3.1 mi North 6.9 mph - N/A   Mist
11:30 AM 10.4 °F -0.4 °F 5.0 °F 79% 30.60 in 3.1 mi NNW 6.9 mph - N/A   Mist
11:47 AM 12.2 °F 1.7 °F 5.0 °F 73% 30.60 in 3.1 mi NNW 6.9 mph - N/A   Mist
12:00 PM 12.2 °F 1.7 °F 5.0 °F 73% 30.60 in 3.1 mi NNW 6.9 mph - N/A   Partly Cloudy
12:30 PM 12.2 °F 1.7 °F 5.0 °F 73% 30.60 in 3.7 mi North 6.9 mph - N/A   Unknown
1:00 PM 13 °F - 5 °F 58% 30.71 in 4 mi NNW 6.7 mph - -   Mist
1:00 PM 14.0 °F 3.9 °F 5.0 °F 67% 30.57 in 3.7 mi North 6.9 mph - N/A   Unknown
1:30 PM 14.0 °F 3.9 °F 6.8 °F 73% 30.57 in 4.3 mi North 6.9 mph - N/A   Unknown
2:00 PM 15.8 °F 6.1 °F 6.8 °F 68% 30.57 in 5.0 mi North 6.9 mph - N/A   Unknown
2:30 PM 15.8 °F 6.1 °F 6.8 °F 68% 30.57 in 5.0 mi North 6.9 mph - N/A   Unknown
3:00 PM 15.8 °F - 6.8 °F 68% 30.54 in 5.6 mi North 2.3 mph - N/A   Unknown
3:30 PM 15.8 °F 6.1 °F 6.8 °F 68% 30.54 in - NNW 6.9 mph - N/A   Clear
4:00 PM 14.0 °F 3.9 °F 5.0 °F 67% 30.54 in - NNW 6.9 mph - N/A   Clear
4:30 PM 14.0 °F 2.9 °F 5.0 °F 67% 30.54 in - North 8.1 mph - N/A   Clear
5:00 PM 10.4 °F -0.4 °F 3.2 °F 73% 30.54 in - North 6.9 mph - N/A   Clear
5:30 PM 10.4 °F 0.8 °F 3.2 °F 73% 30.54 in - North 5.8 mph - N/A   Clear
6:00 PM 10.4 °F -0.4 °F 3.2 °F 73% 30.54 in - North 6.9 mph - N/A   Clear
6:30 PM 8.6 °F -4.7 °F 3.2 °F 79% 30.54 in - North 9.2 mph - N/A   Clear
7:00 PM 8 °F - 2 °F 67% 30.69 in 9 mi North 4.5 mph - -  
7:00 PM 6.8 °F -2.0 °F 1.4 °F 79% 30.54 in - North 4.6 mph - N/A   Clear
7:30 PM 6.8 °F -5.9 °F 1.4 °F 79% 30.54 in - North 8.1 mph - N/A   Clear
8:00 PM 5.0 °F -4.1 °F 1.4 °F 85% 30.54 in - North 4.6 mph - N/A   Clear
8:30 PM 6.8 °F -4.8 °F 1.4 °F 79% 30.54 in - North 6.9 mph - N/A   Clear
9:00 PM 3.2 °F -9.1 °F -0.4 °F 85% 30.54 in 6.2 mi North 6.9 mph - N/A   Partly Cloudy
9:30 PM 3.2 °F -7.8 °F -0.4 °F 85% 30.54 in - NNW 5.8 mph - N/A   Clear
10:00 PM 1.4 °F -8.3 °F -2.2 °F 85% 30.54 in 5.6 mi NW 4.6 mph - N/A   Unknown
10:30 PM 3.2 °F -6.2 °F -0.4 °F 85% 30.54 in 5.0 mi NNW 4.6 mph - N/A   Partly Cloudy
11:00 PM 3.2 °F -6.2 °F -0.4 °F 85% 30.54 in 5.0 mi NNW 4.6 mph - N/A   Partly Cloudy
11:30 PM 1.4 °F -8.3 °F -0.4 °F 92% 30.54 in 4.3 mi NNW 4.6 mph - N/A   Scattered Clouds